sat.trackr.live / text

‹ back to catalog

STARLINK-33947

NORAD 63787 · 2025-091N

PAYLOAD ACTIVE UNKNOWN

§ Identity

Operator
Country
US
Launch date
2025-05-02
Launch site
AFETR
Launch vehicle
Mass (kg)
RCS (m²)

Purposes: comms

External: N2YO · Heavens-Above · Gunter

§ Orbital elements

Epoch: 2026-05-24T20:05:41.539776Z

Period
94.27 min
Inclination
43.0008°
Eccentricity
0.0001610
Mean motion
15.27592539 rev/d
Perigee alt
481.9 km
Apogee alt
484.1 km
Semi-major
6,861.1 km
B*
5.5798e-4
RAAN
342.8638°
Arg perigee
274.8357°
Mean anomaly
85.2311°
Rev number
6,054

§ Raw data

STARLINK-339471 63787U 25091N   26144.83728634  .00015130  00000+0  55798-3 0  99922 63787  43.0008 342.8638 0001610 274.8357  85.2311 15.27592539 60549

JSON: /api/v1/satellites/63787 · /tle

For live sub-satellite position, see the globe view (requires WebGL).

§ Visibility from observer

Set your observer location to see the next 7 days of passes ≥ 10°. The values pass through the URL so the page stays shareable.

No JS? Fill the form by hand. The geolocation button needs JavaScript.